Flag for U.S.A. Weather past 2 weeks in Colorado Springs, Colorado, U.S.A.

Now
60 °F

More clouds than sun.


Feels Like: 60 °F
Forecast: 52 / 61 °F
Wind: 15 mph from South

Location: City Of Colorado Springs Municipal Airport

Current Time: Jul 7, 2015 at 4:58:29 PM

Latest Report: Jul 7, 2015 at 3:54 PM


Visibility: 2 mi

Pressure: 30.07 "Hg (24.21 "Hg at 1831m altitude)

Humidity: 75%

Dew point: 52 °F

Location of Colorado SpringsLocation

Historic Weather in Colorado Springs — Graph

°F

Colorado Springs temperature yesterday

Maximum temperature yesterday: 72 °F (at 11:54 AM)
Minimum temperature yesterday: 57 °F (at 11:54 PM)
Average temperature yesterday: 64 °F

Past Weeks' High & Low Weather Summary

 TemperatureHumidityPressure
High87 °F (Jun 30, 3:54 PM)97% (Jul 7, 5:54 AM)30.29 "Hg (Jul 7, 5:54 AM)
Low54 °F (Jul 7, 4:54 AM)20% (Jun 23, 5:54 PM)29.72 "Hg (Jul 5, 4:54 PM)
Average70 °F58%29.99 "Hg
* Reported Jun 22 2:54 PM — Jul 7 2:54 PM, Colorado Springs, Weather by CustomWeather, © 2015

Note: Actual official high and low records may vary slightly from our data, if they occured in-between our weather recording intervals... More about our weather records

Advertising

Colorado Springs weather history for previous 24 hours

 ConditionsComfort  
Time TempWeatherWind HumidityBarometerVisibility
2:54 PM
Tue, Jul 7
57 °FOvercast.15 mph83%30.08 "Hg2 mi
1:54 PM56 °FFog.14 mph87%30.10 "Hg2 mi
12:54 PM56 °FFog.14 mph84%30.12 "Hg2 mi
11:54 AM56 °FFog.13 mph87%30.13 "Hg2 mi
10:54 AM55 °FFog.15 mph87%30.14 "Hg2 mi
9:54 AM54 °FFog.14 mph90%30.15 "Hg1 mi
8:54 AM55 °FLight rain. Fog.15 mph90%30.15 "Hg2 mi
7:54 AM54 °FLight rain. Fog.13 mph93%30.16 "Hg1 mi
6:54 AM55 °FFog.13 mph90%30.15 "Hg1 mi
5:54 AM54 °FFog.6 mph97%30.15 "Hg1 mi
4:54 AM54 °FDrizzle. Fog.5 mph93%30.16 "Hg2 mi
3:54 AM55 °FDrizzle. Fog.9 mph90%30.15 "Hg2 mi
2:54 AM56 °FFog.8 mph87%30.16 "Hg3 mi
1:54 AM57 °FDrizzle. Fog.3 mph90%30.14 "Hg3 mi
12:54 AM57 °FFog.3 mph93%30.14 "Hg3 mi
11:54 PM
Mon, Jul 6
57 °FLight rain. Fog.6 mph90%30.14 "Hg3 mi
10:54 PM59 °FLight rain. Fog.9 mph84%30.15 "Hg4 mi
9:54 PM60 °FFog.3 mph78%30.13 "Hg6 mi
8:54 PM60 °FLight rain. Fog.3 mph80%30.10 "Hg6 mi
7:54 PM60 °FFog.6 mph80%30.11 "Hg5 mi
6:54 PM60 °FLight rain. Fog.7 mph86%30.11 "Hg2 mi
5:54 PM59 °FMostly cloudy.15 mph87%30.11 "Hg7 mi
4:54 PM60 °FLight rain. Cloudy.16 mph83%30.12 "Hg10 mi
Weather by CustomWeather, © 2015

See weather overviewHow to use our weather pages